Regional Weather Roundup
Issued by NWS Green Bay, WI

Home | Current Version | Previous Version | Graphics & Text | Print | Product List | Glossary Off
Versions: 1 2 3 4 5 6 7 8 9 10 11 12 13 14 15 16 17 18 19 20 21 22 23 24 25 26 27 28 29 30 31 32 33 34 35 36 37 38 39 40 41 42 43 44 45 46 47 48 49 50

000
ASUS43 KGRB 251100
RWRGRB

NORTH-CENTRAL AND NORTHEAST WISCONSIN REGIONAL WEATHER ROUNDUP
NATIONAL WEATHER SERVICE GREEN BAY WI
500 AM CST SUN FEB 25 2018

WIZ005-009-010>012-018-019-251200-
NORTH CENTRAL WISCONSIN

CITY           SKY/WX    TMP DP  RH WIND       PRES   REMARKS
IRONWOOD       LGT SNOW  28  25  88 W15       29.26R FOG
MANITOWISH WTR NOT AVBL
ARBOR VITAE    NOT AVBL
EAGLE RIVER    CLOUDY    30  28  91 W21G26    29.25R
LAND O LAKES   NOT AVBL
RHINELANDER    LGT SNOW  28  25  88 W23G39    29.30R FOG
PHILLIPS       LGT SNOW  26  23  91 SW17G24   29.33R
ANTIGO         NOT AVBL
TOMAHAWK       NOT AVBL
MERRILL        LGT SNOW  25  22  89 W23G33    29.39R WCI   9
$$

WIZ013-073-251200-
NORTHEAST WISCONSIN

CITY           SKY/WX    TMP DP  RH WIND       PRES   REMARKS
IRON MOUNTAIN  CLOUDY    30  27  88 S6        29.23S
MARINETTE      CLOUDY    33  32  96 W12G20    29.33R
$$

WIZ017-030-035>037-045-251200-
CENTRAL WISCONSIN

CITY           SKY/WX    TMP DP  RH WIND       PRES   REMARKS
MEDFORD        NOT AVBL
WAUSAU         MIX PCPN  24  21  88 W22G31    29.41R FOG     WCI   9
MOSINEE        NOT AVBL
MARSHFIELD     CLOUDY    22  18  85 W20G31    29.46R FOG     WCI   7
WISC RAPIDS    CLOUDY    24  18  77 MISG      29.53R
STEVENS POINT  NOT AVBL
WAUPACA        NOT AVBL
SHAWANO        CLOUDY    32  26  81 W21G36    29.41R
CLINTONVILLE   CLOUDY    29  24  81 W22G33    29.44R
WAUTOMA        CLOUDY    26  20  77 SW20G32   29.54R
$$

WIZ038-039-048-051-251200-
FOX VALLEY

CITY           SKY/WX    TMP DP  RH WIND       PRES   REMARKS
NWS GREEN BAY  CLOUDY    32  24  72 W30G46    29.44R
APPLETON       NOT AVBL
OSHKOSH        CLOUDY    29  22  75 W17G36    29.51R
FOND DU LAC    CLOUDY    30  22  72 SW21G35   29.54R
$$

WIZ022-050-052-251200-
EAST CENTRAL WISCONSIN

CITY           SKY/WX    TMP DP  RH WIND       PRES   REMARKS
EPHRAIM        NOT AVBL
WASHINGTON ISL NOT AVBL
STURGEON BAY   MOCLDY    34  30  85 SW23G33   29.35R
MANITOWOC      CLOUDY    33  25  72 W29G48    29.45R
SHEBOYGAN      CLOUDY    33  27  78 W25G40    29.50R
$$

LMZ563-521-522-541>543-251200-
LAKESHORE

STATION/POSITION TIME  TEMP    WIND        PRES    VSBY  WAVE
                       AIR SEA DIR/SP/G                  HT/PER
                 (UTC) (F)     (DEG/KT/KT) (MB)    (MI)  (FT/S)
SHEBOYGAN LKSHOR 1000   36     250/ 24/ 29  997.0R
KEWAUNEE LKSHORE 1030   35     260/ 15/ 23  994.4R
SISTER BAY LKSHO 1005   35     230/ 15/ 20   N/A
MENOMINEE LKSHOR 1030   35     350/ 16/ 19  992.7R
$$




USA.gov is the U.S. government's official web portal to all federal, state and local government web resources and services.